User: anonymous   Login
Location: Alsip
(41.6689°N, 87.7387°W)
Time: 08:09:18
(UTC+00:00)
Language:

Cosmos 44 Rocket - Orbit

View from above orbital plane
View from above orbital plane
View from above satellite
View from above satellite

Ground track
Ground track

The orbit data is extracted from the following two-line orbital elements,

1   877U 64053B   20265.78997816 -.00000103  00000-0  40550-5 0  9994
2   877  65.0785  47.4562 0067779 347.6988  12.2452 14.59399337975543
Epoch (UTC): 21 September 2020 18:57:34
Eccentricity: 0.0067779
inclination: 65.0785°
perigee height: 647 km
apogee height: 743 km
right ascension of ascending node: 47.4562°
argument of perigee: 347.6988°
revolutions per day: 14.59399337
mean anomaly at epoch: 12.2452°
orbit number at epoch: 97554

The dashed part of the orbit path shows where the satellite is in the earth's shadow,  

DLR